Latrobe, PA

8:38 PM EDT on August 19, 2019 (GMT -0400)
Arnold Palmer Regional

Weather History for KLBE - May, 2019

Change the Weather History Date:

Sunday, May 19, 2019

  Actual Average Record
Temperature  
Mean Temperature 70 °F -  
Max Temperature 84 °F 70 °F 87 °F (1998)
Min Temperature 57 °F 48 °F 32 °F (2002)
Cooling Degree Days 6    
Growing Degree Days 20 (Base 50)    
Moisture  
Dew Point 62 °F    
Average Humidity 84    
Maximum Humidity 100    
Minimum Humidity 48    
Precipitation  
Precipitation 0.00 in - - ()
Sea Level Pressure  
Sea Level Pressure 29.93 in    
Wind  
Wind Speed 3 mph (SW)    
Max Wind Speed 21 mph    
Max Gust Speed 29 mph    
Visibility 10 miles    
Events      
Averages and records for this station are not official NWS values.
T = Trace of Precipitation, MM = Missing Value Source: NWS Daily Summary

Daily Weather History Graph

Daily Weather History Graph

Search for Another Location

Airport or City:

Astronomy

May. 19, 2019 Rise Set
Actual Time 5:58 AM EDT 8:30 PM EDT
Civil Twilight 5:27 AM EDT 9:01 PM EDT
Nautical Twilight 4:48 AM EDT 9:40 PM EDT
Astronomical Twilight 4:05 AM EDT 10:24 PM EDT
Moon 9:28 PM EDT (5/19) 6:42 AM EDT (5/19)
Length of Visible Light 15h 34m
Length of Day
14h 32m
Full, 99% of the Moon is Illuminated
May 19
Full
May 26
Last Quarter
Jun 3
New
Jun 10
First Quarter
Jun 17
Full

Hourly Weather History & Observations

Time (EDT) Temp. Heat Index Dew Point Humidity Pressure Visibility Wind Dir Wind Speed Gust Speed Precip Events Conditions
12:15 AM 62.6 °F - 62.6 °F 100% 29.98 in 10.0 mi Calm Calm - N/A   Clear
12:35 AM 62.6 °F - 62.6 °F 100% 29.98 in 10.0 mi Calm Calm - N/A   Clear
12:55 AM - - - N/A% 29.98 in 10.0 mi Calm Calm - N/A   Clear
1:15 AM 60.8 °F - 60.8 °F 100% 29.97 in 10.0 mi Calm Calm - N/A   Clear
1:35 AM 60.8 °F - 60.8 °F 100% 29.97 in 10.0 mi Calm Calm - N/A   Clear
1:55 AM 60.8 °F - 60.8 °F 100% 29.97 in 10.0 mi Calm Calm - N/A   Clear
2:15 AM 59.0 °F - 59.0 °F 100% 29.97 in 10.0 mi Calm Calm - N/A   Clear
2:35 AM 59.0 °F - 59.0 °F 100% 29.97 in 10.0 mi Calm Calm - N/A   Clear
2:55 AM 60.8 °F - 60.8 °F 100% 29.96 in 10.0 mi Calm Calm - N/A   Clear
3:15 AM 59.0 °F - 59.0 °F 100% 29.96 in 9.0 mi Calm Calm - N/A   Clear
3:35 AM 59.0 °F - 59.0 °F 100% 29.96 in 7.0 mi Calm Calm - N/A   Clear
3:55 AM 59.0 °F - 59.0 °F 100% 29.96 in 10.0 mi Calm Calm - N/A   Clear
4:15 AM 59.0 °F - 59.0 °F 100% 29.96 in 10.0 mi Calm Calm - N/A   Clear
4:35 AM 59.0 °F - 59.0 °F 100% 29.96 in 10.0 mi Calm Calm - N/A   Clear
4:55 AM 59.0 °F - 59.0 °F 100% 29.96 in 10.0 mi Calm Calm - N/A   Clear
5:15 AM 59.0 °F - 59.0 °F 100% 29.96 in 10.0 mi Calm Calm - N/A   Clear
5:35 AM 59.0 °F - 59.0 °F 100% 29.97 in 10.0 mi Calm Calm - N/A   Clear
5:55 AM 57.2 °F - 57.2 °F 100% 29.97 in 9.0 mi Calm Calm - N/A   Clear
6:53 AM 57.2 °F - 57.2 °F 100% 29.97 in 10.0 mi Calm Calm - N/A   Clear
7:53 AM - - - N/A% 29.97 in 10.0 mi Calm Calm - N/A   Clear
8:53 AM 75.2 °F - 66.2 °F 73% 29.98 in 10.0 mi SW 5.8 mph - N/A   Partly Cloudy
9:53 AM 78.8 °F - 64.4 °F 61% 29.97 in 10.0 mi SSW 18.4 mph - N/A   Clear
10:53 AM 80.6 °F 82.7 °F 66.2 °F 61% 29.97 in 10.0 mi SSW 17.3 mph 25.3 mph N/A   Clear
11:53 AM 82.4 °F 83.9 °F 64.4 °F 54% 29.96 in 10.0 mi SSW 13.8 mph 19.6 mph N/A   Clear
12:50 PM 84.2 °F 86.6 °F 66.2 °F 55% 29.95 in 10.0 mi SW 17.3 mph 28.8 mph N/A   Mostly Cloudy
1:50 PM 84.2 °F 86.6 °F 66.2 °F 55% 29.93 in 10.0 mi SW 17.3 mph 28.8 mph N/A   Mostly Cloudy
2:50 PM 71.6 °F - 66.2 °F 83% 29.92 in 10.0 mi South 9.2 mph - N/A   Mostly Cloudy
3:50 PM 82.4 °F 86.3 °F 69.8 °F 66% 29.88 in 10.0 mi SW 11.5 mph - N/A   Scattered Clouds
4:50 PM 84.2 °F 85.6 °F 64.4 °F 51% 29.85 in 10.0 mi SW 20.7 mph - N/A   Partly Cloudy
5:45 PM 84.2 °F 85.0 °F 62.6 °F 48% 29.83 in 10.0 mi SW 13.8 mph - N/A   Partly Cloudy
6:50 PM 77.0 °F - 64.4 °F 65% 29.85 in 10.0 mi SW 11.5 mph - N/A   Partly Cloudy
7:45 PM 75.2 °F - 62.6 °F 65% 29.86 in 10.0 mi South 9.2 mph - N/A   Partly Cloudy
8:45 PM 73.4 °F - 62.6 °F 69% 29.85 in 10.0 mi SSW 9.2 mph - N/A   Scattered Clouds
9:45 PM 71.6 °F - 64.4 °F 78% 29.84 in 10.0 mi SSW 5.8 mph - N/A   Clear
10:15 PM 71.6 °F - 64.4 °F 78% 29.85 in 10.0 mi SSW 4.6 mph - N/A   Clear
10:35 PM 69.8 °F - 64.4 °F 83% 29.84 in 10.0 mi SSW 5.8 mph - N/A   Scattered Clouds
10:55 PM 69.8 °F - 64.4 °F 83% 29.85 in 10.0 mi SW 3.5 mph - N/A   Mostly Cloudy
11:15 PM 69.8 °F - 66.2 °F 88% 29.85 in 10.0 mi SW 3.5 mph - N/A   Mostly Cloudy
11:35 PM 71.6 °F - 66.2 °F 83% 29.85 in 10.0 mi Calm Calm - N/A   Overcast
11:55 PM 71.6 °F - 64.4 °F 78% 29.86 in 10.0 mi WSW 8.1 mph - N/A   Mostly Cloudy